2020-069A

Last updated on Tue Oct 06 2020 00:02:05 GMT+0000 (Coordinated Universal Time)

1 46530U 20069A 20279.42124341 -.00021993 00000-0 -39473-3 0 9991 2 46530 51.6435 163.0328 0001342 123.5455 45.8395 15.48820013 367
UTC large
Height (km)
Speed (km/s)
/
Latitude / Longitude
Inclination (degrees)
Orbital Period (minutes)
Azimuth
Elevation
Range (km)
Doppler Factor

Next 0 passes for location: London (51.5072 / 0.1276)

Sorry there are no passes over London.